date,batt_volt,AirTemp_C,Solar_kW,RH,Manual_BP,StationID,WS_ms,PTemp,WS_15min_max,Prog_Sig,Solar_Raw,Bar_mbar,Solar_MJ,Max_WS_2min,Pressure_Raw,Rain_mm,WD_15min_ave,Max_AirTemp_1min,WindDir,WS_15min_med,WS_15min_ave,Elevation_Correction
2022-12-01T00:08:48Z,13.44069,7.455918,0.0,80.12214,0,1156,8.526,7.179676,9.525599,43690,0.0,1018.477,0.0,9.469999,1016.676,0,81.2386359811,7.524,68.51935,6.8404,6.91636435503,1.80078
2022-12-01T00:23:45Z,13.43516,7.693367,0.0,80.56312,0,1156,8.036,7.464336,10.5644,43690,0.0,1018.477,0.0,9.29,1016.676,0,81.9997068956,7.693,68.15809,7.6439995,7.5924331131,1.80078
2022-12-01T00:38:47Z,13.42964,7.727287,0.0,81.71644,0,1156,8.212401,7.706082,10.878,43690,0.0,1018.477,0.0,10.54,1016.676,0,79.4768425954,7.795001,80.63366,7.8792,7.87977969231,1.80078
2022-12-01T00:53:47Z,13.42412,7.795128,0.0,84.80328,0,1156,7.742,7.927486,9.995999,43690,0.0,1018.477,0.0,8.7,1016.676,0,79.319977736,7.965,87.25681,7.742,7.68227197041,1.80078
2022-12-01T01:08:45Z,13.41859,7.86232,0.0,86.83738,0,1156,8.8004,8.10371,9.721599,43690,0.0,1016.116,0.0,9.639999,1014.315,0,77.8206236481,7.896,78.53728,7.4088,7.30706649405,1.80078
2022-12-01T01:23:48Z,13.41761,8.065033,0.0,88.29448,0,1156,6.3504,8.234745,10.2312,43690,0.0,1016.116,0.0,8.15,1014.315,0,80.4251710817,8.07,93.3954,6.9971995,6.98290337647,1.80078
2022-12-01T01:38:48Z,13.41668,8.129856,0.0,88.59421,0,1156,5.4488,8.368038,8.937599,43690,0.0,1016.116,0.0,6.997,1014.315,0,86.9918967656,8.2,81.68575,5.7036,5.7141537929,1.80078
2022-12-01T01:53:47Z,13.40529,8.397934,0.0,87.74034,0,1156,6.0368,8.478741,9.3884,43690,0.0,1016.116,0.0,8.9,1014.315,0,79.9691684974,8.47,83.26954,6.2132,6.27246378698,1.80078
2022-12-01T02:08:50Z,13.40527,8.702743,0.0,86.21336,0,1156,3.4104,8.52393,7.663599,43690,0.0,1014.239,0.0,5.076,1012.438,0,74.053198189,8.74,19.16772,3.577,3.78037881059,1.80078
2022-12-01T02:23:47Z,13.40527,9.007984,0.0,83.73752,0,1156,2.3128,8.589443,7.9576,43690,0.0,1014.239,0.0,5.9,1012.438,0,66.8351559841,9.139999,34.07326,3.2536,3.23910295148,1.80078
2022-12-01T02:38:50Z,13.40527,8.93932,0.0,84.2109,0,1156,7.643999,8.657222,8.526,43690,0.0,1014.239,0.0,8.53,1012.438,0,74.028073552,9.139999,77.94578,3.5182,3.68007291647,1.80078
2022-12-01T02:53:47Z,13.39917,9.072899,0.0,84.8517,0,1156,2.1756,8.700154,8.5652,43690,0.0,1014.239,0.0,5.606,1012.438,0,69.2012566878,9.11,152.8992,3.5672,3.66032896982,1.80078
2022-12-01T03:08:50Z,13.39887,9.37796,0.0,82.57921,0,1156,3.5084,8.745334,8.231999,43690,0.0,1011.298,0.0,6.801,1009.497,0,60.8639247673,9.45,61.18356,3.3712,3.42331294059,1.80078
2022-12-01T03:23:48Z,13.39228,9.377174,0.0,85.25701,0,1156,3.3712,8.833446,8.3692,43690,0.0,1011.298,0.0,6.429,1009.497,0,73.2936953363,9.34,88.67984,3.8808,3.96813017041,1.80078
2022-12-01T03:38:48Z,13.39235,9.511028,0.0,85.1861,0,1156,7.271599,8.923817,9.408,43690,0.0,1011.298,0.0,8.29,1009.497,0,76.6646558146,9.58,68.98142,6.272,6.02984127219,1.80078
2022-12-01T03:53:48Z,13.3865,9.441105,0.0,87.38664,0,1156,8.1536,9.034519,8.8984,43690,0.0,1011.298,0.0,8.9,1009.497,0,76.831896248,9.51,85.3744,6.2916,6.22734900592,1.80078
2022-12-01T04:08:48Z,13.38643,9.61079,0.0,87.62426,0,1156,8.447599,9.122631,9.623599,43690,0.0,1010.087,0.0,8.58,1008.287,0,79.3893626766,9.71,86.67476,7.3892,7.36567976667,1.80078
2022-12-01T04:23:50Z,13.38091,9.813518,0.0,88.47071,0,1156,7.663599,9.278515,9.329599,43690,0.0,1010.087,0.0,9.269999,1008.287,0,85.4225946379,9.809999,76.80234,6.8208,6.83152222941,1.80078
2022-12-01T04:38:52Z,13.37538,10.01697,0.0,88.74197,0,1156,7.271599,9.479595,11.5248,43690,0.0,1010.087,0.0,9.309999,1008.287,0,81.3417395801,10.12,88.06986,7.4577995,7.42182801176,1.80078
2022-12-01T04:53:48Z,13.36986,10.52562,0.0,87.4873,0,1156,6.8992,9.705517,11.1916,43690,0.0,1010.087,0.0,9.429999,1008.287,0,78.6223232612,10.59,78.39133,7.938,7.75742468047,1.80078
2022-12-01T05:08:51Z,13.35882,10.76299,0.0,87.18212,0,1156,6.6052,9.951778,10.0352,43690,0.0,1006.989,0.0,9.09,1005.188,0,76.0253309148,10.8,67.17193,6.811,6.59251757059,1.80078
2022-12-01T05:23:52Z,13.35329,11.00035,0.0,86.53783,0,1156,1.274,10.22288,10.0744,43690,0.0,1006.989,0.0,8.269999,1005.188,0,69.4955133497,11.17,30.91353,4.1356,4.21642113941,1.80078
2022-12-01T05:38:53Z,13.34777,11.00035,0.0,88.1655,0,1156,3.5672,10.44881,8.9964,43690,0.0,1006.989,0.0,6.997,1005.188,0,68.8771879659,11.03,61.75484,4.067,4.27233879294,1.80078
2022-12-01T05:53:49Z,13.34635,11.33373,0.0,87.44364,0,1156,8.859199,10.65214,9.1728,43690,0.0,1006.989,0.0,8.059999,1005.188,0,63.1338297117,11.4,63.89049,3.9788,4.08538219467,1.80078
2022-12-01T06:08:52Z,13.33946,11.26167,0.0,88.35179,0,1156,5.4096,10.81029,11.368,43690,0.0,1003.66,0.0,9.7,1001.859,0,66.0874469722,11.36,59.62457,4.3708,4.60934350588,1.80078
2022-12-01T06:23:53Z,13.33802,11.93488,0.0,85.56372,0,1156,5.1352,10.9481,10.2508,43690,0.0,1003.66,0.0,6.919,1001.859,0,62.1682493183,11.83,53.91464,3.8024,4.01869175059,1.80078
2022-12-01T06:38:55Z,13.32669,11.86552,0.0,86.03575,0,1156,5.4096,11.12884,9.4472,43690,0.0,1003.66,0.0,6.154,1001.859,0,49.9619968086,12.0,39.97747,4.1748,4.07922114412,1.80078
2022-12-01T06:53:52Z,13.32669,11.76275,0.0,88.54244,0,1156,2.7244,11.28925,8.5848,43690,0.0,1003.66,0.0,6.272,1001.859,0,57.9739561751,11.9,23.94747,4.1356,4.18477394675,1.80078
2022-12-01T07:08:50Z,13.32117,11.86443,0.0,89.28818,0,1156,4.4884,11.42707,10.6232,43690,0.0,1000.798,0.0,8.15,998.9968,0,48.4691667385,11.97,286.6235,4.1356,4.28868027664,1.80078
2022-12-01T07:23:53Z,13.32117,12.03392,0.0,90.00004,0,1156,1.3524,11.54229,9.094401,43690,0.0,1000.798,0.0,5.39,998.9968,0,35.511031818,12.1,23.05696,3.8122,3.84586587588,1.80078
2022-12-01T07:38:55Z,13.32117,12.33901,0.0,89.55937,0,1156,1.5288,11.72529,7.1932,43690,0.0,1000.798,0.0,6.468,998.9968,0,32.309775504,12.34,72.70884,3.8024,3.72376939294,1.80078
2022-12-01T07:53:56Z,13.31565,12.23731,0.0,90.7119,0,1156,1.666,11.84051,7.7812,43690,0.0,1000.798,0.0,7.389001,998.9968,0,30.5490473709,12.27,286.455,4.165,4.17560704647,1.80078
2022-12-01T08:08:52Z,13.31013,12.37291,0.0,90.7458,0,1156,2.3128,11.95573,9.1728,43690,0.0,998.3569,0.0,6.488,996.5561,0,26.7510499023,12.44,168.5228,3.724,3.76250413609,1.80078
2022-12-01T08:23:55Z,13.31013,12.33901,0.0,91.55937,0,1156,3.3712,12.07095,7.114799,43690,0.0,998.3569,0.0,6.997,996.5561,0,18.7686698184,12.41,34.92238,3.6456,3.65309411118,1.80078
2022-12-01T08:38:56Z,13.31013,12.10172,0.0,93.93224,0,1156,8.937599,12.16358,13.7396,43690,0.0,998.3569,0.0,13.74,996.5561,0,126.358874094,12.17,178.8238,4.6844,5.65978817529,1.80078
2022-12-01T08:53:57Z,13.30461,12.30511,0.0,95.83055,0,1156,2.7832,12.25621,9.5844,43690,0.0,998.3569,0.0,9.58,996.5561,0,150.425975421,12.37,147.6801,2.4892,3.15882819647,1.80078
2022-12-01T09:08:53Z,13.29909,12.4746,0.0,94.9153,0,1156,7.8792,12.39402,14.1512,43690,0.0,997.7061,0.0,11.76,995.9053,0,168.978819969,12.64,178.3424,6.3112,6.64231235325,1.80078
2022-12-01T09:23:56Z,13.29909,12.77969,0.0,94.44072,0,1156,1.862,12.5341,9.1924,43690,0.0,997.7061,0.0,4.567,995.9053,0,109.068956836,12.78,4.187798,2.8812,3.00260469353,1.80078
2022-12-01T09:38:54Z,13.29356,12.4068,0.0,94.57631,0,1156,12.0736,12.62673,12.6028,43690,0.0,997.7061,0.0,12.07,995.9053,0,170.727192573,12.47,175.4543,2.842,3.89610886923,1.80078
2022-12-01T09:53:57Z,13.30461,9.86443,0.0,95.59326,0,1156,11.7208,12.32624,14.8176,43690,0.0,997.7061,0.0,14.05,995.9053,0,202.945953349,10.0,200.5089,9.9176,9.72275284118,1.80078
2022-12-01T10:08:55Z,13.32117,9.525444,0.0,96.37293,0,1156,10.9956,11.74788,13.7592,43690,0.0,997.0552,0.0,12.58,995.2544,0,203.348475659,9.559999,209.0529,11.3876,11.3766982012,1.80078
2022-12-01T10:23:58Z,13.34325,9.322056,0.0,96.50851,0,1156,13.0144,11.17629,13.8964,43690,0.0,997.0552,0.0,13.21,995.2544,0,202.518399155,9.42,199.137,10.8878,10.9425646412,1.80078
2022-12-01T10:38:55Z,13.35511,9.051693,0.0,95.08638,0,1156,14.896,10.74251,17.9144,43690,0.0,997.0552,0.0,17.91,995.2544,0,197.647346279,9.189999,190.8128,14.21,14.1492284024,1.80078
2022-12-01T10:53:55Z,13.36378,8.794002,0.0,92.90866,0,1156,12.6812,10.38103,20.1096,43690,0.0,997.0552,0.0,14.21,995.2544,0,200.650448198,9.229999,219.9721,13.6416,13.7794958462,1.80078
2022-12-01T11:08:55Z,13.36984,7.066746,0.0,89.52177,0,1156,7.2912,9.951778,15.8172,43690,0.0,999.2528,0.0,10.64,997.452,0,237.792514544,7.168,228.8417,8.9572,9.53824131361,1.80078
2022-12-01T11:23:55Z,13.39195,5.947769,0.0004824803,85.99524,0,1156,3.2732,9.278515,11.1524,43690,0.03377362,999.2528,2.412402e-06,9.559999,997.452,0,250.051106342,6.049,270.9989,6.174,6.32488510651,1.80078
2022-12-01T11:38:56Z,13.40897,5.374176,0.001447444,83.11817,0,1156,2.9988,8.566853,10.0156,43690,0.1013211,999.2528,7.237218e-06,5.958,997.452,0,265.369897218,5.406,282.188,4.5668,4.59869347929,1.80078
2022-12-01T11:53:56Z,13.42804,4.806965,0.005308042,81.8804,0,1156,4.4688,7.904896,8.722,43690,0.371563,999.2528,2.654021e-05,6.017,997.452,0,264.966719846,4.976,266.7375,4.2924,4.31698695858,1.80078
2022-12-01T12:08:57Z,13.45169,4.470684,0.01158267,83.31045,0,1156,4.5864,7.310711,7.1344,43690,0.8107866,1000.31,5.791332e-05,6.233,998.5089,0,257.063610585,4.606,300.1595,3.7632,3.78674319467,1.80078
2022-12-01T12:23:59Z,13.45726,4.470821,0.02027102,83.48032,0,1156,3.1164,6.809154,6.37,43690,1.418971,1000.31,0.0001013551,4.508,998.5089,0,254.399922955,4.539,249.5597,3.6848,3.76435294118,1.80078
2022-12-01T12:39:01Z,13.46278,4.471428,0.02702808,82.22635,0,1156,2.4892,6.461231,6.8992,43690,1.891965,1000.31,0.0001351404,6.86,998.5089,0,241.009612149,4.539,244.7702,4.1748,4.2119247,1.80078
2022-12-01T12:54:02Z,13.47975,4.641804,0.03088923,77.30902,0,1156,3.0968,5.959682,10.2704,43690,2.162246,1000.31,0.0001544461,10.27,998.5089,0,243.445671912,4.641,253.9267,5.9584,6.0288446,1.80078
2022-12-01T13:08:58Z,13.48916,4.653923,0.02944229,73.49574,0,1156,7.9772,5.591419,12.4852,43690,2.060961,1001.788,0.0001472115,11.49,999.9871,0,238.384174856,4.857,233.5421,8.036,7.80880222485,1.80078
2022-12-01T13:23:59Z,13.48945,4.960938,0.1071568,70.37659,0,1156,4.9,5.41972,12.3284,43690,7.500974,1001.788,0.0005357838,9.17,999.9871,0,237.471036444,4.893,277.9285,7.9674,8.11128687647,1.80078
2022-12-01T13:39:00Z,13.48945,4.9949,0.04344224,71.25889,0,1156,6.4484,5.440052,11.956,43690,3.040957,1001.788,0.0002172112,11.96,999.9871,0,235.178666017,5.063,267.6172,8.2025995,8.31858575882,1.80078
2022-12-01T13:54:02Z,13.48393,5.164562,0.2910741,67.89954,0,1156,8.2908,5.440052,13.8964,43690,20.37519,1001.788,0.001455371,9.349999,999.9871,0,233.30330452,5.131,235.7431,9.8881995,10.0900798647,1.80078
2022-12-01T14:08:59Z,13.45611,4.992767,0.3166189,58.90456,0,1156,9.113999,6.025196,14.308,43690,22.16332,1001.957,0.001583095,11.41,1000.156,0,232.851480535,5.097,233.4432,10.0352,9.97616791716,1.80078
2022-12-01T14:24:01Z,13.42436,5.251564,0.3470214,60.65202,0,1156,5.0176,6.786564,11.7404,43690,24.2915,1001.957,0.001735107,11.11,1000.156,0,236.007891882,5.353,227.405,8.486799,8.3984845,1.80078
2022-12-01T14:39:03Z,13.41307,5.183193,0.3494284,61.32974,0,1156,10.9956,7.421414,12.7008,43690,24.45999,1001.957,0.001747142,12.29,1000.156,0,232.577048731,5.183,232.725,9.623599,9.53747507647,1.80078
2022-12-01T14:54:00Z,13.40754,5.149265,0.4169562,59.76935,0,1156,8.447599,7.751262,13.6808,43690,29.18694,1001.957,0.002084781,13.45,1000.156,0,229.063987021,5.285,239.1072,10.7996,10.6884945444,1.80078
2022-12-01T15:09:04Z,13.40599,4.975449,0.5240566,62.17194,0,1156,7.056,7.993008,13.4652,43690,36.68396,1003.493,0.002620283,13.45,1001.692,0,233.300265298,4.908,250.1143,9.525599,9.60388455294,1.80078
2022-12-01T15:24:03Z,13.41102,4.702392,0.2152138,63.4584,0,1156,7.6244,8.081112,12.8772,43690,15.06497,1003.493,0.001076069,11.72,1001.692,0,232.893455549,4.702,238.6663,9.329599,9.23229570414,1.80078
2022-12-01T15:39:01Z,13.435,4.09679,0.1351204,64.10995,0,1156,8.212401,7.751262,11.0936,43690,9.458425,1003.493,0.0006756018,7.879,1001.692,0,240.08107171,4.13,236.9829,7.663599,7.58891113018,1.80078
2022-12-01T15:54:04Z,13.45725,4.097668,0.1303132,65.60376,0,1156,10.192,7.114155,11.7404,43690,9.121922,1003.493,0.0006515658,9.62,1001.692,0,240.070781713,4.098,222.2241,7.4284,7.50841397647,1.80078
2022-12-01T16:09:02Z,13.46278,4.165531,0.1283834,64.48439,0,1156,11.1328,6.70071,12.544,43690,8.986834,1004.067,0.0006419168,11.29,1002.266,0,238.429489196,4.199,233.2547,8.486799,8.49897730769,1.80078
2022-12-01T16:24:03Z,13.47383,3.962002,0.1167999,63.33106,0,1156,8.5652,6.373119,13.6808,43690,8.175993,1004.067,0.0005839995,13.62,1002.266,0,239.775185234,4.03,238.8904,8.055599,8.11097977852,1.80078
2022-12-01T16:39:06Z,13.47936,4.269787,0.122109,67.2358,0,1156,8.134,5.959682,12.6616,43690,8.547629,1004.067,0.0006105448,12.66,1002.266,0,230.450737323,4.27,232.8584,9.8293995,9.77936221765,1.80078
2022-12-01T16:54:02Z,13.48299,4.144074,0.1380362,67.04742,0,1156,6.566,5.787975,13.1712,43690,9.662537,1004.067,0.0006901811,12.92,1002.266,0,233.954142482,4.211,244.1374,10.0352,9.74607091124,1.80078
2022-12-01T17:09:05Z,13.46698,4.483772,0.2553206,63.21378,0,1156,7.271599,5.939342,13.818,43690,17.87244,1004.474,0.001276603,11.58,1002.673,0,230.914282801,4.721,216.1457,10.045,9.91563984706,1.80078
2022-12-01T17:24:02Z,13.46358,4.031582,0.1298313,56.75257,0,1156,9.5844,6.221752,13.9748,43690,9.088194,1004.474,0.0006491567,13.68,1002.673,0,234.301163864,4.168,232.445,10.3684,10.331519432,1.80078
2022-12-01T17:39:05Z,13.46889,4.032196,0.07480989,61.02767,0,1156,10.78,6.068119,15.3664,43690,5.236692,1004.474,0.0003740494,13.03,1002.673,0,234.287367805,4.032,224.8132,10.8976,10.6938752235,1.80078
2022-12-01T17:54:02Z,13.48751,3.871124,0.1042512,59.7163,0,1156,6.2916,5.830898,13.0144,43690,7.297583,1004.474,0.0005212559,10.25,1002.673,0,240.419716018,3.972,234.0112,8.1144,8.23501515385,1.80078
2022-12-01T18:09:07Z,13.4949,3.569416,0.04150994,58.12649,0,1156,9.074799,5.591419,13.2888,43690,2.905696,1005.512,0.0002075497,12.27,1003.712,0,240.800783875,3.705,246.1733,8.3006,8.24133863529,1.80078
2022-12-01T18:24:03Z,13.49498,3.875118,0.1312993,56.02306,0,1156,8.8004,5.376793,13.3476,43690,9.190954,1005.512,0.0006564967,9.25,1003.712,0,236.161998008,3.977,235.1167,8.6044,8.72234784615,1.80078
2022-12-01T18:39:05Z,13.50603,3.976914,0.3070121,57.31251,0,1156,6.272,5.139572,11.3288,43690,21.49085,1005.512,0.001535061,11.33,1003.712,0,241.847916485,3.875,252.3908,7.546,7.44903751765,1.80078
2022-12-01T18:54:07Z,13.50051,3.29826,0.1264742,58.39836,0,1156,5.0764,5.074051,13.5044,43690,8.85319,1005.512,0.0006323708,9.15,1003.712,0,248.059178058,3.434,262.7987,7.0853995,7.15307751765,1.80078
2022-12-01T19:09:07Z,13.51156,3.332191,0.0318599,63.72581,0,1156,13.4652,4.922684,13.4652,43690,2.230193,1006.354,0.0001592995,12.27,1004.554,0,244.683320523,3.468,223.3355,7.212799,7.51808046763,1.80078
2022-12-01T19:24:04Z,13.51708,3.128593,0.07917717,64.2348,0,1156,9.3492,4.708054,17.1304,43690,5.542402,1006.354,0.0003958858,14.25,1004.554,0,233.056535165,3.23,233.0206,10.682,10.9480496095,1.80078
2022-12-01T19:39:08Z,13.5288,3.028587,0.01448421,57.04342,0,1156,7.0756,4.427906,15.1704,43690,1.013894,1006.354,7.242103e-05,11.29,1004.554,0,234.979158131,3.096,252.9314,10.6232,10.5134633952,1.80078
2022-12-01T19:54:07Z,13.53586,2.79631,0.01158738,55.86259,0,1156,5.9388,4.170353,12.0344,43690,0.8111162,1006.354,5.793688e-05,12.03,1004.554,0,249.416021218,2.898,269.2034,7.056,7.11894605769,1.80078
2022-12-01T20:09:05Z,13.5355,2.762596,0.02076072,56.20227,0,1156,5.5468,3.955723,12.5636,43690,1.45325,1007.091,0.0001038036,9.9,1005.29,0,243.888625593,2.898,223.012,7.5068,7.57661766864,1.80078
2022-12-01T20:24:08Z,13.54701,3.203796,0.006759302,60.78397,0,1156,11.3092,3.63491,13.23,43690,0.4731512,1007.091,3.379651e-05,13.19,1005.29,0,237.429589151,3.204,228.9879,9.5648,9.60895751765,1.80078
2022-12-01T20:39:06Z,13.55957,2.869904,0.003379651,52.50969,0,1156,8.055599,3.357021,12.642,43690,0.2365756,1007.091,1.689825e-05,11.13,1005.29,0,238.631594243,3.039,260.8767,9.4668,9.47329456213,1.80078
2022-12-01T20:54:09Z,13.56035,3.278763,0.0009656146,55.19315,0,1156,8.055599,3.142391,13.1908,43690,0.06759302,1007.091,4.828073e-06,13.19,1005.29,0,233.593201345,3.448,214.3242,9.7804,9.83389630588,1.80078
2022-12-01T21:09:07Z,13.56037,3.38084,0.0,55.39713,0,1156,8.9768,3.079136,13.1124,43690,0.0,1008.969,0.0,11.74,1007.168,0,236.808446742,3.381,237.1727,9.760799,9.84465078107,1.80078
2022-12-01T21:24:09Z,13.55484,3.38084,0.0,50.06787,0,1156,9.505999,3.164986,14.8176,43690,0.0,1008.969,0.0,14.82,1007.168,0,236.306285834,3.618,258.4293,9.898,10.1773574941,1.80078
2022-12-01T21:39:07Z,13.54931,3.652397,0.0,56.34757,0,1156,14.6216,3.334431,17.052,43690,0.0,1008.969,0.0,15.72,1007.168,0,231.684304464,3.585,226.2793,12.1324,11.9227147633,1.80078
2022-12-01T21:54:09Z,13.55484,3.482288,0.0,59.94514,0,1156,13.5632,3.314095,17.0716,43690,0.0,1008.969,0.0,14.29,1007.168,0,229.334477631,3.516,230.8804,13.279,13.1720070412,1.80078
2022-12-01T22:09:07Z,13.56037,3.38084,0.0,58.11268,0,1156,12.2108,3.185318,15.9936,43690,0.0,1009.539,0.0,15.99,1007.738,0,229.910891308,3.381,214.3255,12.5832,12.3924188876,1.80078
2022-12-01T22:24:10Z,13.57142,3.14323,0.0,53.22469,0,1156,13.6024,3.056541,14.7196,43690,0.0,1009.539,0.0,14.31,1007.738,0,233.377407083,3.279,232.5936,11.6522,11.3994752353,1.80078
2022-12-01T22:39:08Z,13.57142,3.109287,0.0,55.2953,0,1156,9.505999,2.930023,14.9156,43690,0.0,1009.539,0.0,12.64,1007.738,0,237.802608716,3.245,242.1856,10.78,10.7644591124,1.80078
2022-12-01T22:54:08Z,13.57695,2.973511,0.0,57.09434,0,1156,8.3888,2.735729,12.1716,43690,0.0,1009.539,0.0,12.25,1007.738,0,244.800567228,3.143,217.579,6.6346,6.73582182192,1.80078
2022-12-01T23:09:10Z,13.57142,2.668011,0.0,52.37609,0,1156,8.5652,2.715393,13.132,43690,0.0,1011.169,0.0,11.21,1009.369,0,244.259188346,2.94,267.8285,7.3892,7.7262046,1.80078
2022-12-01T23:24:08Z,13.58248,2.192791,0.0,54.85402,0,1156,6.1936,2.503025,13.2496,43690,0.0,1011.169,0.0,8.45,1009.369,0,252.611226221,2.329,245.5115,6.958,7.01018925444,1.80078
2022-12-01T23:39:11Z,13.58801,2.464344,0.0,57.84112,0,1156,10.2704,2.225136,15.092,43690,0.0,1011.169,0.0,15.09,1009.369,0,245.360167554,2.43,227.0264,7.9772,8.19683518235,1.80078
2022-12-01T23:54:09Z,13.59354,2.124901,0.0,59.4365,0,1156,6.6444,2.076027,13.3672,43690,0.0,1011.169,0.0,13.37,1009.369,0,242.99394063,2.43,224.5923,9.1532,8.77117384615,1.80078
2022-12-02T00:09:13Z,13.59354,1.887291,0.0,55.22741,0,1156,7.742,1.926918,16.6012,43690,0.0,1011.577,0.0,11.15,1009.776,0,249.096206124,1.887,264.0688,7.9379995,8.37208221765,1.80078
2022-12-02T00:24:10Z,13.60459,1.785915,0.0,56.92525,0,1156,8.231999,1.712288,14.1708,43690,0.0,1011.577,0.0,14.17,1009.776,0,252.291277593,1.854,240.8627,7.114799,7.32970402959,1.80078
2022-12-02T00:39:13Z,13.60475,1.480442,0.0,55.53356,0,1156,8.447599,1.499916,10.7408,43690,0.0,1011.577,0.0,10.74,1009.776,0,253.887857743,1.65,243.1524,6.8012,6.69351515294,1.80078
2022-12-02T00:54:10Z,13.61654,1.650589,0.0,56.85798,0,1156,5.9192,1.267216,10.878,43690,0.0,1011.577,0.0,10.88,1009.776,0,256.744154094,1.617,237.202,6.1152,6.21006856805,1.80078
2022-12-02T01:09:13Z,13.62312,1.65551,0.0,60.70094,0,1156,9.0552,1.138439,11.7012,43690,0.0,1012.758,0.0,8.7,1010.957,0,245.349703323,1.519,228.0223,5.3312,5.48396465294,1.80078
2022-12-02T01:24:10Z,13.62978,1.45718,0.0,58.60368,0,1156,5.5272,1.011921,11.1916,43690,0.0,1012.758,0.0,9.45,1010.957,0,250.449968865,1.591,234.5848,7.3304,7.17359984615,1.80078
2022-12-02T01:39:14Z,13.63073,1.119938,0.0,58.84464,0,1156,6.2524,0.8831406,9.8784,43690,0.0,1012.758,0.0,9.45,1010.957,0,254.23262604,1.222,274.6177,5.5958,5.65725168824,1.80078
2022-12-02T01:54:15Z,13.63103,0.9847069,0.0,56.67231,0,1156,4.7432,0.7972908,9.505999,43690,0.0,1012.758,0.0,8.019999,1010.957,0,257.158348254,1.053,254.2739,6.0368,5.99863754706,1.80078
2022-12-02T02:09:14Z,13.63133,1.188419,0.0,60.10182,0,1156,4.4492,0.6911049,12.5244,43690,0.0,1014.517,0.0,11.39,1012.716,0,249.357361774,1.256,253.7675,6.6052,6.87264131361,1.80078
2022-12-02T02:24:16Z,13.63133,0.8149376,0.0,56.94396,0,1156,4.3904,0.5849228,12.5636,43690,0.0,1014.517,0.0,10.56,1012.716,0,256.47650901,0.9850001,245.5226,6.615,6.67783514118,1.80078
2022-12-02T02:39:12Z,13.63687,0.8149376,0.0,56.87605,0,1156,4.2924,0.4787369,13.0732,43690,0.0,1014.517,0.0,10.35,1012.716,0,251.57818745,0.883,247.0896,6.4484,6.48272888757,1.80078
2022-12-02T02:54:14Z,13.63687,0.5772438,0.0,57.48726,0,1156,3.5672,0.372551,11.172,43690,0.0,1014.517,0.0,8.29,1012.716,0,254.625813857,0.7130001,235.3487,6.2916,6.25366816471,1.80078
2022-12-02T03:09:16Z,13.64239,0.9168053,0.0,59.99999,0,1156,10.5252,0.2663651,14.406,43690,0.0,1015.825,0.0,13.27,1014.024,0,241.134133946,1.053,258.6377,8.0066,8.33138337647,1.80078
2022-12-02T03:24:13Z,13.64239,0.4074669,0.0,58.53989,0,1156,5.3312,0.3092918,13.4652,43690,0.0,1015.825,0.0,9.88,1014.024,0,245.4755906,0.577,270.5473,8.486799,8.52391231953,1.80078
2022-12-02T03:39:16Z,13.64792,0.3395538,0.0,57.82682,0,1156,10.5056,0.1805153,11.9168,43690,0.0,1015.825,0.0,9.719999,1014.024,0,249.288803596,0.374,263.7728,7.3304,7.44730809412,1.80078
2022-12-02T03:54:13Z,13.65346,0.1018639,0.0,56.5365,0,1156,7.016799,0.01107025,10.7604,43690,0.0,1015.825,0.0,7.428001,1014.024,0,251.111434479,0.204,244.0037,6.0172,6.25274783432,1.80078
2022-12-02T04:09:16Z,13.66451,-0.03396225,0.0,56.36672,0,1156,4.5864,-0.2238922,11.564,43690,0.0,1016.965,0.0,11.56,1015.165,0,253.703623043,0.068,217.7494,5.4684,5.31113878824,1.80078
2022-12-02T04:24:17Z,13.67051,0.0339508,0.0,54.63497,0,1156,8.251599,-0.3933334,12.3284,43690,0.0,1016.965,0.0,8.86,1015.165,0,251.955697792,0.068,268.1606,6.3993995,6.58375519412,1.80078
2022-12-02T04:39:14Z,13.66494,-0.1693954,0.0,54.66946,0,1156,8.0164,-0.4995194,11.27,43690,0.0,1016.965,0.0,9.189999,1015.165,0,253.124018984,0.035,269.1275,6.272,6.48296087574,1.80078
2022-12-02T04:54:16Z,13.66617,-0.1656723,0.0,54.67457,0,1156,5.9976,-0.5853691,10.3096,43690,0.0,1016.965,0.0,9.059999,1015.165,0,254.226018117,-0.09800001,210.1768,5.8016,5.86823991765,1.80078
2022-12-02T05:09:18Z,13.66612,-0.299324,0.0,52.0286,0,1156,6.6836,-0.6486282,10.5644,43690,0.0,1017.84,0.0,8.7,1016.039,0,257.847498503,-0.198,248.3826,6.3406,6.25366812941,1.80078
2022-12-02T05:24:15Z,13.67232,-0.5028839,0.0,51.2138,0,1156,2.3324,-0.691555,9.1532,43690,0.0,1017.84,0.0,6.448,1016.039,0,263.382584817,-0.333,304.1081,5.488,5.40136560947,1.80078
2022-12-02T05:39:17Z,13.66681,-0.3668442,0.0,49.48201,0,1156,4.7824,-0.7344818,10.4664,43690,0.0,1017.84,0.0,6.37,1016.039,0,256.549155631,-0.163,266.0356,5.3508,5.41121405824,1.80078
2022-12-02T05:54:19Z,13.67218,-0.5705604,0.0,50.2632,0,1156,5.1156,-0.7344818,9.760799,43690,0.0,1017.84,0.0,6.997,1016.039,0,257.271729609,-0.435,238.8368,4.8902,4.91763997647,1.80078
2022-12-02T06:09:15Z,13.67789,-0.09509659,0.0,51.34997,0,1156,6.8992,-0.7548142,12.1912,43690,0.0,1019.417,0.0,12.19,1017.616,0,250.074647758,-0.027,260.1525,4.9392,5.40159759172,1.80078
2022-12-02T06:24:17Z,13.67237,-0.2988663,0.0,50.2632,0,1156,7.4088,-0.5424461,9.4668,43690,0.0,1019.417,0.0,9.469999,1017.616,0,255.584038784,-0.163,232.3746,6.2622,6.17353874706,1.80078
2022-12-02T06:39:18Z,13.67113,-0.3686638,0.0,49.20806,0,1156,4.7432,-0.52211,11.1916,43690,0.0,1019.417,0.0,8.55,1017.616,0,250.83943133,-0.437,287.8444,5.6644,5.9279623,1.80078
2022-12-02T06:54:20Z,13.67713,-0.6398544,0.0,49.786,0,1156,6.5072,-0.6057053,12.5636,43690,0.0,1019.417,0.0,8.9,1017.616,0,258.578147741,-0.505,282.7603,6.1348,6.23326112353,1.80078
2022-12-02T07:09:22Z,13.67738,-0.6727066,0.0,48.66668,0,1156,3.7044,-0.7548142,11.0348,43690,0.0,1020.79,0.0,7.056,1018.989,0,260.293470496,-0.707,230.6851,5.8996,6.00585906289,1.80078
2022-12-02T07:24:18Z,13.6838,-0.7731247,0.0,52.0308,0,1156,6.37,-0.9468498,9.3492,43690,0.0,1020.79,0.0,8.96,1018.989,0,258.067318576,-0.7740001,241.5689,5.6154,5.61879227564,1.80078